This is the latest recevied weather packets stored in our database for station/object KC9NPJ-13. If no packets are shown the sender has not sent any weather packets the latest 1 day(s).
| Time | Temp. | Humidity | Pressure | Rain* | Wind** | Luminosity | Snow |
|---|---|---|---|---|---|---|---|
| 1778058537 | 7.78° C | 95% | 1012.8 hPa | 0.25 mm | 0 m/s | - | - |
| 1778058237 | 7.78° C | 95% | 1012.7 hPa | 0.25 mm | 0 m/s | - | - |
| 1778057937 | 7.78° C | 95% | 1012.7 hPa | 0.25 mm | 0 m/s | - | - |
| 1778057637 | 7.78° C | 95% | 1013 hPa | 0.25 mm | 0 m/s | - | - |
| 1778057338 | 7.22° C | 95% | 1012.8 hPa | 0.25 mm | 0 m/s | - | - |
| 1778057038 | 7.22° C | 95% | 1012.8 hPa | 0.25 mm | 0 m/s | - | - |
| 1778056738 | 7.22° C | 95% | 1012.7 hPa | 0.25 mm | 0 m/s | - | - |
| 1778056438 | 7.22° C | 95% | 1012.5 hPa | 0.25 mm | 0 m/s | - | - |
| 1778056138 | 7.22° C | 95% | 1012.7 hPa | 0.25 mm | 0 m/s | - | - |
| 1778055838 | 7.22° C | 95% | 1012.5 hPa | 0.25 mm | 0.45 m/s, 340° | - | - |
| 1778055538 | 7.22° C | 95% | 1012.4 hPa | 0.25 mm | 0.89 m/s, 342° | - | - |
| 1778055238 | 7.22° C | 95% | 1012.1 hPa | 0.25 mm | 1.34 m/s, 350° | - | - |
| 1778054938 | 7.22° C | 95% | 1011.8 hPa | 0 mm | 1.34 m/s, 348° | - | - |
| 1778054638 | 7.22° C | 95% | 1011.9 hPa | 0 mm | 0.89 m/s, 358° | - | - |
| 1778054338 | 7.22° C | 95% | 1012 hPa | 0 mm | 0.89 m/s, 356° | - | - |
| 1778054038 | 7.22° C | 95% | 1012.1 hPa | 0 mm | 1.34 m/s, 352° | - | - |
| 1778053738 | 7.22° C | 95% | 1012.1 hPa | 0 mm | 1.34 m/s, 350° | - | - |
| 1778053438 | 7.22° C | 95% | 1012.1 hPa | 0 mm | 1.34 m/s, 348° | - | - |
| 1778053138 | 7.22° C | 95% | 1012.3 hPa | 0 mm | 1.34 m/s, 352° | - | - |
| 1778052838 | 7.22° C | 95% | 1012 hPa | 0 mm | 1.34 m/s, 356° | - | - |
| 1778052538 | 7.22° C | 95% | 1012.1 hPa | 0 mm | 1.34 m/s, 343° | - | - |
| 1778052238 | 7.22° C | 95% | 1012.1 hPa | 0 mm | 1.34 m/s, 345° | - | - |
| 1778051938 | 7.22° C | 95% | 1012.2 hPa | 0 mm | 1.34 m/s, 346° | - | - |
| 1778051638 | 7.22° C | 95% | 1012 hPa | 0 mm | 1.34 m/s, 342° | - | - |
| 1778051338 | 7.22° C | 95% | 1012.1 hPa | 0 mm | 1.34 m/s, 11° | - | - |
* Rain latest hour (hover to see other rain measurements)
** Current wind speed in m/s (hover to see current wind gust speed)